User: anonymous   Login
Location: General Nathan Twining Observatory
(34.5931°N, 106.8201°W)
Time: 11:00:52
(UTC-06:00)
Language:

Cosmos 1937 Rocket - Orbit

View from above orbital plane
View from above orbital plane
View from above satellite
View from above satellite

Ground track
Ground track

The orbit data is extracted from the following two-line orbital elements,

1 19039U 88029B   18230.47206572 -.00000090  00000-0 -20687-4 0  9994
2 19039  74.0454 232.5652 0024847 298.2673  61.5973 14.38409371592282
Epoch (UTC): 18 August 2018 11:19:46
Eccentricity: 0.0024847
inclination: 74.0454°
perigee height: 746 km
apogee height: 781 km
right ascension of ascending node: 232.5652°
argument of perigee: 298.2673°
revolutions per day: 14.38409371
mean anomaly at epoch: 61.5973°
orbit number at epoch: 59228

The dashed part of the orbit path shows where the satellite is in the earth's shadow,  

DLR